Location: Unspecified
(51.6250°N, 0.8230°E)
Time: 11:33:29
(UTC+01:00)

Intercosmos 25 - Visible Passes

Search period start: 27 June 2017 00:00
Search period end: 07 July 2017 00:00
Orbit: 434 x 2887 km, 82.6° (Epoch: 26 June)

Date Brightness Start Highest point End Pass type
(mag) Time Alt. Az. Time Alt. Az. Time Alt. Az.
27 Jun 6.9 23:37:49 10° NW 23:40:52 15° W 23:44:41 10° WSW visible
28 Jun 7.0 23:32:53 10° NW 23:36:05 15° W 23:40:05 10° WSW visible
29 Jun 7.0 23:27:56 10° NW 23:31:17 16° W 23:35:29 10° WSW visible
30 Jun 7.1 23:23:00 10° NW 23:26:29 16° W 23:30:54 10° WSW visible
01 Jul 7.1 23:18:05 10° NW 23:21:42 16° W 23:26:19 10° WSW visible
02 Jul 7.2 23:13:09 10° NW 23:16:55 16° W 23:21:44 10° WSW visible
03 Jul 7.3 23:08:13 10° NW 23:12:08 17° W 23:17:09 10° WSW visible
04 Jul 7.3 23:03:18 10° NW 23:07:22 17° W 23:12:35 10° WSW visible
05 Jul 7.4 22:58:23 10° NW 23:02:35 17° W 23:08:01 10° WSW visible
06 Jul 7.4 22:53:28 10° NW 22:57:49 18° W 23:03:27 10° WSW visible
